When you browse on this site, cookies collect data to enhance your experience and personalize the content and advertising you see.
Visit our Privacy Policy to learn more. By continuing to use the site, you agree to this use of cookies and data.
  • En España
  • Lista de países
  • Para 7 días
  • Temperatura del agua
  • El tiempo en el mapa
  • Informadores
  • user-avatar
    Iniciar sesión

    Tiempo cada hora San Juan

    Hoy, 4 Junio, Jueves

    Tiempo Temperatura Precipitaciones Viento Presión Humedad
    00:00 +7°C° 0 mm 1 mps 712 mmHg 82%
    01:00 +5°C° 0 mm 0 mps 712 mmHg 85%
    02:00 +6°C° 0 mm 1 mps 711 mmHg 84%
    03:00 +5°C° 0 mm 2 mps 711 mmHg 83%
    04:00 +5°C° 0 mm 2 mps 711 mmHg 82%
    05:00 +5°C° 0 mm 2 mps 711 mmHg 79%
    06:00 +4°C° 0 mm 3 mps 711 mmHg 77%
    07:00 +4°C° 0 mm 3 mps 711 mmHg 74%
    08:00 +7°C° 0 mm 3 mps 710 mmHg 66%
    09:00 +8°C° 0 mm 4 mps 710 mmHg 58%
    10:00 +10°C° 0 mm 5 mps 710 mmHg 50%
    11:00 +12°C° 0 mm 5 mps 709 mmHg 45%
    12:00 +13°C° 0 mm 4 mps 708 mmHg 40%
    13:00 +14°C° 0 mm 4 mps 708 mmHg 36%
    14:00 +14°C° 0 mm 4 mps 707 mmHg 36%
    15:00 +14°C° 0 mm 4 mps 707 mmHg 35%
    16:00 +14°C° 0 mm 3 mps 707 mmHg 35%
    17:00 +12°C° 0 mm 3 mps 707 mmHg 40%
    18:00 +12°C° 0 mm 2 mps 707 mmHg 45%
    19:00 +10°C° 0 mm 1 mps 707 mmHg 49%
    20:00 +10°C° 0 mm 1 mps 708 mmHg 49%
    21:00 +9°C° 0 mm 1 mps 708 mmHg 49%
    22:00 +9°C° 0 mm 1 mps 708 mmHg 49%
    23:00 +9°C° 0 mm 1 mps 708 mmHg 48%

    Mañana, 5 Junio, Viernes

    Tiempo Temperatura Precipitaciones Viento Presión Humedad
    00:00 +8°C° 0 mm 2 mps 708 mmHg 46%
    01:00 +8°C° 0 mm 2 mps 708 mmHg 45%
    02:00 +8°C° 0 mm 2 mps 707 mmHg 46%
    03:00 +7°C° 0 mm 2 mps 707 mmHg 47%
    04:00 +7°C° 0 mm 2 mps 707 mmHg 48%
    05:00 +8°C° 0 mm 2 mps 707 mmHg 46%
    06:00 +8°C° 0 mm 2 mps 707 mmHg 43%
    07:00 +8°C° 0 mm 3 mps 708 mmHg 40%
    08:00 +11°C° 0 mm 3 mps 708 mmHg 34%
    09:00 +14°C° 0 mm 3 mps 708 mmHg 28%
    10:00 +17°C° 0 mm 3 mps 709 mmHg 22%
    11:00 +19°C° 0 mm 3 mps 708 mmHg 20%
    12:00 +20°C° 0 mm 3 mps 707 mmHg 18%
    13:00 +21°C° 0 mm 3 mps 707 mmHg 16%
    14:00 +20°C° 0 mm 2 mps 707 mmHg 17%
    15:00 +20°C° 0 mm 2 mps 707 mmHg 18%
    16:00 +20°C° 0 mm 1 mps 707 mmHg 18%
    17:00 +18°C° 0 mm 1 mps 706 mmHg 21%
    18:00 +15°C° 0 mm 1 mps 706 mmHg 25%
    19:00 +12°C° 0 mm 0 mps 706 mmHg 28%
    20:00 +12°C° 0 mm 0 mps 706 mmHg 29%
    21:00 +11°C° 0 mm 0 mps 706 mmHg 29%
    22:00 +10°C° 0 mm 0 mps 706 mmHg 30%
    23:00 +10°C° 0 mm 0 mps 706 mmHg 29%

    Pasado mañana, 6 Junio, Sábado

    Tiempo Temperatura Precipitaciones Viento Presión Humedad
    00:00 +11°C° 0 mm 1 mps 705 mmHg 28%
    01:00 +11°C° 0 mm 1 mps 705 mmHg 27%
    02:00 +10°C° 0 mm 1 mps 705 mmHg 30%
    03:00 +9°C° 0 mm 0 mps 704 mmHg 32%
    04:00 +8°C° 0 mm 0 mps 704 mmHg 35%
    05:00 +8°C° 0 mm 0 mps 704 mmHg 33%
    06:00 +8°C° 0 mm 0 mps 704 mmHg 30%
    07:00 +8°C° 0 mm 0 mps 704 mmHg 28%
    08:00 +12°C° 0 mm 1 mps 704 mmHg 23%
    09:00 +16°C° 0 mm 1 mps 705 mmHg 18%
    10:00 +20°C° 0 mm 1 mps 705 mmHg 14%
    11:00 +21°C° 0 mm 1 mps 704 mmHg 12%
    12:00 +22°C° 0 mm 1 mps 704 mmHg 11%
    13:00 +23°C° 0 mm 2 mps 703 mmHg 10%
    14:00 +21°C° 0 mm 2 mps 703 mmHg 11%
    15:00 +21°C° 0 mm 2 mps 703 mmHg 12%
    16:00 +20°C° 0 mm 2 mps 703 mmHg 13%
    17:00 +19°C° 0 mm 1 mps 703 mmHg 15%
    18:00 +16°C° 0 mm 1 mps 703 mmHg 17%
    19:00 +13°C° 0 mm 1 mps 703 mmHg 20%
    20:00 +12°C° 0 mm 0 mps 703 mmHg 19%
    21:00 +11°C° 0 mm 0 mps 703 mmHg 19%
    22:00 +11°C° 0 mm 0 mps 703 mmHg 19%
    23:00 +10°C° 0 mm 0 mps 703 mmHg 20%

    7 Junio, Domingo

    Tiempo Temperatura Precipitaciones Viento Presión Humedad
    00:00 +11°C° 0 mm 1 mps 703 mmHg 21%
    01:00 +11°C° 0 mm 1 mps 703 mmHg 22%
    02:00 +10°C° 0 mm 1 mps 703 mmHg 26%
    03:00 +10°C° 0 mm 1 mps 703 mmHg 29%
    04:00 +10°C° 0 mm 1 mps 703 mmHg 32%
    05:00 +9°C° 0 mm 2 mps 703 mmHg 33%
    06:00 +9°C° 0 mm 2 mps 704 mmHg 33%
    07:00 +9°C° 0 mm 2 mps 704 mmHg 34%
    08:00 +12°C° 0 mm 2 mps 704 mmHg 31%
    09:00 +15°C° 0 mm 2 mps 705 mmHg 27%
    10:00 +17°C° 0 mm 2 mps 705 mmHg 24%
    11:00 +18°C° 0 mm 2 mps 705 mmHg 23%
    12:00 +19°C° 0 mm 2 mps 704 mmHg 22%
    13:00 +20°C° 0 mm 2 mps 704 mmHg 20%
    14:00 +19°C° 0 mm 2 mps 704 mmHg 22%
    15:00 +20°C° 0 mm 1 mps 704 mmHg 23%
    16:00 +19°C° 0 mm 1 mps 704 mmHg 24%
    17:00 +18°C° 0 mm 1 mps 704 mmHg 25%
    18:00 +15°C° 0 mm 1 mps 704 mmHg 27%
    19:00 +13°C° 0 mm 1 mps 705 mmHg 28%
    20:00 +13°C° 0 mm 1 mps 705 mmHg 27%
    21:00 +13°C° 0 mm 1 mps 705 mmHg 25%
    22:00 +13°C° 0 mm 2 mps 706 mmHg 24%
    23:00 +12°C° 0 mm 1 mps 706 mmHg 25%

    8 Junio, Lunes

    Tiempo Temperatura Precipitaciones Viento Presión Humedad
    00:00 +11°C° 0 mm 1 mps 706 mmHg 27%
    01:00 +11°C° 0 mm 1 mps 706 mmHg 28%
    02:00 +10°C° 0 mm 1 mps 705 mmHg 30%
    03:00 +10°C° 0 mm 1 mps 705 mmHg 32%
    04:00 +9°C° 0 mm 1 mps 705 mmHg 34%
    05:00 +9°C° 0 mm 1 mps 705 mmHg 31%
    06:00 +10°C° 0 mm 1 mps 705 mmHg 29%
    07:00 +10°C° 0 mm 1 mps 705 mmHg 26%
    08:00 +13°C° 0 mm 1 mps 706 mmHg 21%
    09:00 +16°C° 0 mm 1 mps 706 mmHg 17%
    10:00 +20°C° 0 mm 1 mps 706 mmHg 12%
    11:00 +21°C° 0 mm 1 mps 706 mmHg 12%
    12:00 +22°C° 0 mm 1 mps 705 mmHg 11%
    13:00 +23°C° 0 mm 2 mps 705 mmHg 10%
    14:00 +21°C° 0 mm 2 mps 705 mmHg 12%
    15:00 +20°C° 0 mm 2 mps 705 mmHg 13%
    16:00 +20°C° 0 mm 3 mps 705 mmHg 15%
    17:00 +18°C° 0 mm 3 mps 705 mmHg 17%
    18:00 +17°C° 0 mm 3 mps 705 mmHg 19%
    19:00 +14°C° 0 mm 3 mps 705 mmHg 21%
    20:00 +14°C° 0 mm 3 mps 705 mmHg 23%
    21:00 +14°C° 0 mm 3 mps 705 mmHg 24%
    22:00 +14°C° 0 mm 2 mps 705 mmHg 26%
    23:00 +14°C° 0 mm 2 mps 705 mmHg 26%

    9 Junio, Martes

    Tiempo Temperatura Precipitaciones Viento Presión Humedad
    00:00 +13°C° 0 mm 2 mps 705 mmHg 27%
    01:00 +13°C° 0 mm 2 mps 705 mmHg 27%
    02:00 +13°C° 0 mm 2 mps 705 mmHg 28%
    03:00 +12°C° 0 mm 3 mps 705 mmHg 29%
    04:00 +12°C° 0 mm 3 mps 704 mmHg 29%
    05:00 +11°C° 0 mm 4 mps 705 mmHg 31%
    06:00 +10°C° 0 mm 4 mps 705 mmHg 32%
    07:00 +9°C° 0 mm 5 mps 705 mmHg 34%
    08:00 +10°C° 0 mm 5 mps 705 mmHg 33%
    09:00 +12°C° 0 mm 5 mps 705 mmHg 32%
    10:00 +14°C° 0 mm 5 mps 705 mmHg 30%
    11:00 +14°C° 0 mm 4 mps 704 mmHg 29%
    12:00 +15°C° 0 mm 4 mps 704 mmHg 28%
    13:00 +17°C° 0 mm 3 mps 703 mmHg 27%
    14:00 +16°C° 0 mm 3 mps 703 mmHg 28%
    15:00 +16°C° 0 mm 3 mps 703 mmHg 29%
    16:00 +16°C° 0 mm 3 mps 702 mmHg 30%
    17:00 +14°C° 0 mm 3 mps 703 mmHg 33%
    18:00 +13°C° 0 mm 2 mps 703 mmHg 36%
    19:00 +12°C° 0 mm 2 mps 703 mmHg 40%
    20:00 +10°C° 0 mm 2 mps 703 mmHg 42%
    21:00 +11°C° 0 mm 1 mps 703 mmHg 44%
    22:00 +10°C° 0 mm 1 mps 703 mmHg 46%
    23:00 +10°C° 0 mm 1 mps 703 mmHg 45%
    Mostrar más